When you browse on this site, cookies collect data to enhance your experience and personalize the content and advertising you see.
Visit our Privacy Policy to learn more. By continuing to use the site, you agree to this use of cookies and data.
  • In Germany
  • List of Countries
  • For 7 days
  • Water Temperature
  • Weather Map
  • Weather Widgets
  • user-avatar
    Login

    Hourly Weather La Massana

    Today, 22 August, Thursday

    Time Temperature Precipitation Wind Pressure Humidity
    00:00 +10°C° 0 mm 1 mps 614 mmHg 65%
    01:00 +9°C° 0 mm 1 mps 613 mmHg 61%
    02:00 +9°C° 0 mm 1 mps 613 mmHg 58%
    03:00 +9°C° 0 mm 1 mps 613 mmHg 54%
    04:00 +9°C° 0 mm 1 mps 613 mmHg 52%
    05:00 +9°C° 0 mm 1 mps 613 mmHg 50%
    06:00 +8°C° 0 mm 2 mps 614 mmHg 45%
    07:00 +12°C° 0 mm 1 mps 615 mmHg 40%
    08:00 +14°C° 0 mm 1 mps 616 mmHg 34%
    09:00 +18°C° 0 mm 1 mps 617 mmHg 29%
    10:00 +19°C° 0 mm 1 mps 618 mmHg 28%
    11:00 +20°C° 0 mm 1 mps 618 mmHg 27%
    12:00 +22°C° 0 mm 1 mps 619 mmHg 27%
    13:00 +20°C° 0 mm 2 mps 618 mmHg 29%
    14:00 +20°C° 0 mm 2 mps 618 mmHg 31%
    15:00 +20°C° 0 mm 2 mps 618 mmHg 32%
    16:00 +18°C° 0 mm 2 mps 617 mmHg 43%
    17:00 +16°C° 0 mm 1 mps 616 mmHg 53%
    18:00 +14°C° 0 mm 1 mps 615 mmHg 63%
    19:00 +13°C° 0 mm 1 mps 615 mmHg 64%
    20:00 +12°C° 0 mm 1 mps 615 mmHg 65%
    21:00 +10°C° 0 mm 1 mps 614 mmHg 66%
    22:00 +10°C° 0 mm 1 mps 614 mmHg 65%
    23:00 +10°C° 0 mm 1 mps 614 mmHg 64%

    Tomorrow, 23 August, Friday

    Time Temperature Precipitation Wind Pressure Humidity
    00:00 +10°C° 0 mm 1 mps 614 mmHg 63%
    01:00 +10°C° 0 mm 1 mps 614 mmHg 66%
    02:00 +9°C° 0 mm 1 mps 614 mmHg 68%
    03:00 +9°C° 0 mm 1 mps 614 mmHg 71%
    04:00 +10°C° 0 mm 1 mps 614 mmHg 74%
    05:00 +10°C° 0 mm 1 mps 614 mmHg 78%
    06:00 +10°C° 0 mm 1 mps 614 mmHg 81%
    07:00 +13°C° 0 mm 1 mps 615 mmHg 68%
    08:00 +16°C° 0 mm 1 mps 617 mmHg 56%
    09:00 +20°C° 0 mm 1 mps 618 mmHg 43%
    10:00 +21°C° 0 mm 1 mps 618 mmHg 39%
    11:00 +22°C° 0 mm 1 mps 618 mmHg 36%
    12:00 +23°C° 0 mm 2 mps 618 mmHg 32%
    13:00 +23°C° 0 mm 2 mps 618 mmHg 33%
    14:00 +23°C° 0 mm 2 mps 618 mmHg 35%
    15:00 +23°C° 0 mm 2 mps 617 mmHg 36%
    16:00 +21°C° 0 mm 1 mps 616 mmHg 44%
    17:00 +19°C° 0 mm 1 mps 616 mmHg 53%
    18:00 +16°C° 0 mm 0 mps 615 mmHg 62%
    19:00 +15°C° 0 mm 1 mps 614 mmHg 65%
    20:00 +14°C° 0 mm 1 mps 614 mmHg 67%
    21:00 +12°C° 0 mm 1 mps 614 mmHg 70%
    22:00 +12°C° 0 mm 1 mps 614 mmHg 70%
    23:00 +12°C° 0 mm 1 mps 614 mmHg 70%

    Day after tomorrow, 24 August, Saturday

    Time Temperature Precipitation Wind Pressure Humidity
    00:00 +12°C° 0 mm 1 mps 613 mmHg 69%
    01:00 +12°C° 0 mm 1 mps 613 mmHg 69%
    02:00 +12°C° 0 mm 1 mps 613 mmHg 69%
    03:00 +11°C° 0 mm 1 mps 613 mmHg 69%
    04:00 +12°C° 0 mm 1 mps 613 mmHg 69%
    05:00 +12°C° 0 mm 1 mps 613 mmHg 69%
    06:00 +12°C° 0 mm 1 mps 613 mmHg 69%
    07:00 +15°C° 0 mm 1 mps 614 mmHg 60%
    08:00 +19°C° 0 mm 1 mps 616 mmHg 50%
    09:00 +22°C° 0 mm 1 mps 617 mmHg 41%
    10:00 +23°C° 0 mm 1 mps 617 mmHg 38%
    11:00 +23°C° 0 mm 1 mps 617 mmHg 35%
    12:00 +24°C° 0 mm 2 mps 617 mmHg 32%
    13:00 +24°C° 0 mm 2 mps 617 mmHg 33%
    14:00 +24°C° 0 mm 1 mps 617 mmHg 35%
    15:00 +23°C° 0 mm 1 mps 616 mmHg 37%
    16:00 +22°C° 0 mm 1 mps 616 mmHg 44%
    17:00 +20°C° 0 mm 1 mps 615 mmHg 51%
    18:00 +18°C° 0 mm 1 mps 614 mmHg 58%
    19:00 +16°C° 0 mm 1 mps 614 mmHg 59%
    20:00 +15°C° 0 mm 1 mps 614 mmHg 60%
    21:00 +13°C° 0 mm 1 mps 614 mmHg 62%
    22:00 +13°C° 0 mm 1 mps 613 mmHg 61%
    23:00 +13°C° 0 mm 1 mps 613 mmHg 61%

    25 August, Sunday

    Time Temperature Precipitation Wind Pressure Humidity
    00:00 +13°C° 0 mm 1 mps 613 mmHg 61%
    01:00 +12°C° 0 mm 1 mps 613 mmHg 59%
    02:00 +12°C° 0 mm 1 mps 613 mmHg 57%
    03:00 +12°C° 0 mm 1 mps 612 mmHg 56%
    04:00 +12°C° 0 mm 1 mps 612 mmHg 56%
    05:00 +12°C° 0 mm 1 mps 613 mmHg 56%
    06:00 +13°C° 0 mm 1 mps 613 mmHg 55%
    07:00 +15°C° 0 mm 1 mps 614 mmHg 49%
    08:00 +19°C° 0 mm 1 mps 615 mmHg 43%
    09:00 +22°C° 0 mm 1 mps 617 mmHg 37%
    10:00 +23°C° 0 mm 1 mps 617 mmHg 36%
    11:00 +23°C° 0 mm 1 mps 617 mmHg 35%
    12:00 +24°C° 0 mm 2 mps 617 mmHg 33%
    13:00 +24°C° 0 mm 2 mps 616 mmHg 36%
    14:00 +23°C° 0 mm 2 mps 616 mmHg 40%
    15:00 +23°C° 0 mm 2 mps 615 mmHg 43%
    16:00 +20°C° 0 mm 2 mps 615 mmHg 50%
    17:00 +20°C° 0 mm 1 mps 614 mmHg 58%
    18:00 +18°C° 0 mm 1 mps 613 mmHg 65%
    19:00 +16°C° 0 mm 1 mps 613 mmHg 70%
    20:00 +14°C° 0 mm 1 mps 613 mmHg 74%
    21:00 +13°C° 0 mm 1 mps 612 mmHg 79%
    22:00 +13°C° 0 mm 1 mps 612 mmHg 80%
    23:00 +12°C° 0 mm 1 mps 612 mmHg 80%

    26 August, Monday

    Time Temperature Precipitation Wind Pressure Humidity
    00:00 +12°C° 0 mm 1 mps 612 mmHg 81%
    01:00 +12°C° 0 mm 1 mps 612 mmHg 81%
    02:00 +12°C° 0 mm 1 mps 611 mmHg 80%
    03:00 +12°C° 0 mm 1 mps 611 mmHg 80%
    04:00 +12°C° 0 mm 1 mps 611 mmHg 78%
    05:00 +12°C° 0 mm 1 mps 611 mmHg 77%
    06:00 +12°C° 0 mm 1 mps 612 mmHg 76%
    07:00 +14°C° 0 mm 2 mps 612 mmHg 67%
    08:00 +16°C° 0 mm 2 mps 613 mmHg 57%
    09:00 +19°C° 0 mm 2 mps 614 mmHg 48%
    10:00 +19°C° 0 mm 2 mps 614 mmHg 44%
    11:00 +20°C° 0 mm 3 mps 614 mmHg 40%
    12:00 +20°C° 0 mm 3 mps 614 mmHg 36%
    13:00 +20°C° 0 mm 3 mps 614 mmHg 41%
    14:00 +19°C° 0 mm 2 mps 613 mmHg 46%
    15:00 +18°C° 0 mm 2 mps 613 mmHg 51%
    16:00 +17°C° 0.1 mm 2 mps 612 mmHg 57%
    17:00 +16°C° 0.1 mm 1 mps 611 mmHg 64%
    18:00 +15°C° 0.1 mm 1 mps 611 mmHg 70%
    19:00 +14°C° 0 mm 1 mps 611 mmHg 73%
    20:00 +12°C° 0 mm 1 mps 610 mmHg 76%
    21:00 +11°C° 0 mm 1 mps 610 mmHg 80%
    22:00 +11°C° 0 mm 1 mps 610 mmHg 81%
    23:00 +11°C° 0 mm 1 mps 610 mmHg 82%

    27 August, Tuesday

    Time Temperature Precipitation Wind Pressure Humidity
    00:00 +9°C° 0 mm 2 mps 609 mmHg 83%
    01:00 +10°C° 0 mm 1 mps 609 mmHg 81%
    02:00 +10°C° 0 mm 1 mps 609 mmHg 78%
    03:00 +10°C° 0 mm 1 mps 609 mmHg 76%
    04:00 +9°C° 0 mm 2 mps 609 mmHg 75%
    05:00 +9°C° 0 mm 2 mps 609 mmHg 74%
    06:00 +10°C° 0 mm 2 mps 609 mmHg 73%
    07:00 +13°C° 0 mm 2 mps 610 mmHg 64%
    08:00 +16°C° 0 mm 2 mps 611 mmHg 55%
    09:00 +18°C° 0 mm 2 mps 612 mmHg 46%
    10:00 +19°C° 0 mm 2 mps 613 mmHg 45%
    11:00 +20°C° 0 mm 3 mps 613 mmHg 44%
    12:00 +20°C° 0 mm 3 mps 613 mmHg 43%
    13:00 +19°C° 0.5 mm 3 mps 612 mmHg 51%
    14:00 +18°C° 0.5 mm 3 mps 611 mmHg 59%
    15:00 +17°C° 0.5 mm 2 mps 610 mmHg 68%
    16:00 +16°C° 1 mm 2 mps 609 mmHg 73%
    17:00 +15°C° 1 mm 2 mps 609 mmHg 79%
    18:00 +14°C° 1 mm 2 mps 608 mmHg 84%
    19:00 +13°C° 2.2 mm 1 mps 608 mmHg 88%
    20:00 +12°C° 2.2 mm 1 mps 608 mmHg 92%
    21:00 +11°C° 2.2 mm 1 mps 608 mmHg 96%
    22:00 +10°C° 1 mm 1 mps 608 mmHg 95%
    23:00 +10°C° 1 mm 1 mps 608 mmHg 94%
    Show more